Location: Unspecified
(49.2170°N, 0.0000°E)
Time: 06:21:11
(UTC+00:00)

S-56A Canister/Altair - Pass Details

Date: 26 January 2021
Orbit: 631 x 2501 km, 38.9° (Epoch: 02 March)

Event Time Altitude Azimuth Distance (km) Brightness Sun altitude
Exits shadow 06:06:25 11° 233° (SW) 2,072 9.4 -15.0°
Maximum altitude 06:09:10 17° 196° (SSW) 1,872 9.5 -14.5°
Drops below altitude 10° 06:12:43 10° 158° (SSE) 2,537 10.7 -14.0°
Sets 06:16:38 0° 139° (SE) 3,799 12.0 -13.4°
